Regional Weather Roundup
Issued by NWS

Home | Current Version | Previous Version | Graphics & Text | Print | Product List | Glossary On
Versions: 1 2 3 4 5 6 7 8 9 10 11 12 13 14 15 16 17 18 19 20 21 22 23 24 25 26 27 28 29 30 31 32 33 34 35 36 37 38 39 40 41 42 43 44 45 46 47 48 49 50
000
ASUS43 KMKX 211411
RWRWI

WISCONSIN REGIONAL WEATHER ROUNDUP
NATIONAL WEATHER SERVICE MILWAUKEE/SULLIVAN WI
900 AM CDT TUE APR 21 2015

NOTE: "FAIR" INDICATES FEW OR NO CLOUDS BELOW 12,000 FEET WITH NO
SIGNIFICANT WEATHER AND/OR OBSTRUCTIONS TO VISIBILITY.

WIZ001-002-006>008-014>016-023>028-211500-
NORTHWEST WISCONSIN

CITY           SKY/WX    TMP DP  RH WIND       PRES   REMARKS
SUPERIOR ARPT  LGT SNOW  34  30  85 NW9       29.43S WCI  26
ASHLAND        CLOUDY    35  31  85 W14G21    29.39S WCI  26
HAYWARD        LGT SNOW  32  27  81 W8        29.42R WCI  25
SIREN          FLURRIES  33  31  92 W15       29.48S WCI  23
CUMBERLAND     FLURRIES  32  28  86 W17       29.46S WCI  21
RICE LAKE      CLOUDY    33  29  84 W14G21    29.48S WCI  23
CHETEK         CLOUDY    34  29  82 W12G20    29.47S WCI  25
LADYSMITH      FLURRIES  34  29  84 W14G20    29.44S WCI  24
EAU CLAIRE     CLOUDY    35  26  69 W15       29.49S WCI  25
MENOMONIE      CLOUDY    35  28  77 W17G23    29.51S WCI  24
NEW RICHMOND   CLOUDY    35  27  73 W15G23    29.51F WCI  25
OSCEOLA        CLOUDY    37  27  68 W20G26    29.54F WCI  26
$$

WIZ003>005-009-010-017-018-211500-
NORTH CENTRAL WISCONSIN

CITY           SKY/WX    TMP DP  RH WIND       PRES   REMARKS
MANITOWISH WTR LGT SNOW  31  29  92 W12       29.33S WCI  21
ARBOR VITAE    LGT SNOW  33  29  86 W10       29.34R WCI  24
WOODRUFF       LGT SNOW  33  29  86 W10       29.34R WCI  24
RHINELANDER    LGT SNOW  32  27  81 W15G22    29.35S WCI  22
EAGLE RIVER    LGT SNOW  32  29  87 W14G21    29.32S WCI  22
LAND O LAKES   LGT SNOW  32  30  91 W6        29.32R WCI  27
PHILLIPS       LGT SNOW  31  28  86 W7        29.38S WCI  25
TOMAHAWK       CLOUDY    33  28  80 W9G20     29.38S HAZE    WCI  25
MEDFORD        LGT SNOW  32  27  81 W17G26    29.42R WCI  21
MERRILL        CLOUDY    33  31  91 W13       29.39S FOG     WCI  24
$$

WIZ029-030-035-036-043>047-211500-
CENTRAL WISCONSIN

CITY           SKY/WX    TMP DP  RH WIND       PRES   REMARKS
WAUSAU         FLURRIES  34  29  82 W20G25    29.40R WCI  23
MOSINEE        CLOUDY    34  32  93 W15G26    29.43  WCI  24
MARSHFIELD     FLURRIES  34  29  82 W15G24    29.44S WCI  24
STEVENS POINT  CLOUDY    33  29  85 W13G22    29.44S WCI  23
WAUPACA        CLOUDY    38  30  73 W18G25    29.46R WCI  28
WAUTOMA        MIX PCPN  37  31  79 W21G28    29.48S WCI  26
WISC RAPIDS    MIX PCPN  36  29  75 W14G22    29.48R WCI  27
CAMP DOUGLAS   FLURRIES  36  36 100 W16G25    29.50S WCI  26
$$

WIZ011>013-019>022-031-037>040-048>050-211500-
NORTHEAST WISCONSIN

CITY           SKY/WX    TMP DP  RH WIND       PRES   REMARKS
ANTIGO         CLOUDY    33  29  83 W20G25    29.37S WCI  22
SHAWANO        CLOUDY    39  31  73 W13G22    29.41S WCI  31
OCONTO         CLOUDY    38  31  74 W16G23    29.39S WCI  30
STURGEON BAY   CLOUDY    37  28  70 W18G25    29.40S WCI  27
GREEN BAY      CLOUDY    39  32  76 W18G25    29.43S WCI  30
MANITOWOC      LGT RAIN  38  34  85 W18G24    29.44S WCI  28
APPLETON       CLOUDY    36  30  80 W20G28    29.45R WCI  25
CLINTONVILLE   CLOUDY    36  30  80 W13G23    29.42S WCI  27
OSHKOSH        CLOUDY    38  29  70 W14G24    29.46S WCI  30
$$

WIZ032>034-041-042-053>061-211500-
SOUTHWEST WISCONSIN

CITY           SKY/WX    TMP DP  RH WIND       PRES   REMARKS
LA CROSSE      CLOUDY    40  29  64 W18       29.54S WCI  31
SPARTA         FLURRIES  36  29  73 W8        29.52F WCI  30
VIROQUA        CLOUDY    33  33 100 NW20G26   29.53S WCI  21
BOSCOBEL       CLOUDY    41  28  60 W15G24    29.57S
PRAIRIE DU CHI CLOUDY    40  27  58 W18G32    29.59S WCI  31
PLATTEVILLE    CLOUDY    40  28  62 W24G35    29.59S WCI  30
$$

WIZ056-057-062-063-064-067-068-211500-
SOUTH CENTRAL WISCONSIN

CITY           SKY/WX    TMP DP  RH WIND       PRES   REMARKS
REEDSBURG      FLURRIES  36  30  80 W16       29.52S WCI  26
BARABOO/DELLS  FLURRIES  36  29  76 W16G24    29.52R WCI  26
LONE ROCK      CLOUDY    38  30  73 W17G28    29.55S WCI  28
MINERAL POINT  CLOUDY    41  28  60 W22G33    29.55S
MADISON        FLURRIES  39  26  59 W9G17     29.53S WCI  33
MIDDLETON      CLOUDY    40  26  57 W17       29.53F WCI  31
WATERTOWN      CLOUDY    38  32  78 W13G23    29.51F WCI  30
MONROE         CLOUDY    37  30  75 W20G30    29.56F WCI  27
JANESVILLE     CLOUDY    43  25  49 W21G30    29.56R
$$

WIZ051-052-058>065-066-070>072-211500-
SOUTHEAST WISCONSIN

CITY           SKY/WX    TMP DP  RH WIND       PRES   REMARKS
MILWAUKEE      LGT RAIN  41  28  60 W13       29.52S
WAUKESHA       CLOUDY    37  28  70 W14G20    29.52R WCI  29
MILWAUKEE/TIMM NOT AVBL
RACINE         CLOUDY    41  29  62 W14G28    29.55R
BURLINGTON     CLOUDY    38  27  63 W23G30    29.55R WCI  27
KENOSHA        CLOUDY    41  29  62 W24G35    29.55R
FOND DU LAC    CLOUDY    38  30  73 W22G30    29.47F WCI  27
SHEBOYGAN      CLOUDY    38  30  73 W26G36    29.46F WCI  26
WEST BEND      FLURRIES  37  30  75 W14G28    29.49R WCI  29
JUNEAU         CLOUDY    37  32  82 W14G21    29.51S WCI  28
$$

LSZ147-162-211500-
LAKE SUPERIOR

STATION/POSITION TIME  TEMP    WIND        PRES    WAVE
                       AIR SEA DIR/SP/G            HT/PER
                 (UTC) (F)     (DEG/KT/KT) (MB)    (FT/S)
DEVILS ISLAND    1400   34     280/ 17/ 20  994.7R
PORT WING        1323   35     280/ 18/ 26  995.3S
SAXON HARBOR     1340   34     260/  5/ 12  994.6R
$$

LMZ867-665-643>646-211500-
LAKE MICHIGAN

STATION/POSITION TIME  TEMP    WIND        PRES    WAVE
                       AIR SEA DIR/SP/G            HT/PER
                 (UTC) (F)     (DEG/KT/KT) (MB)    (FT/S)
CHAMBERS ISLAND  1300   38     210/  9/ 16  994.9S
NORTHPORT PIER   1300   37     240/  3/ 17  994.6S
SISTER BAY       1347   43     260/ 18/ 21   N/A
KEWAUNEE LAKESHO 1300   37     270/ 16/ 19  995.7R
SHEBOYGAN LAKESH 1400   39     280/ 15/ 17  998.5F
PORT WASHINGTON  1340   41     260/ 14/ 21  999.7R
MILWAUKEE LAKESH 1300   41     260/ 12/ 17   N/A
KENOSHA   LAKESH 1400   42     260/ 16/ 28 1001.0
$$

TC  - TEMPERATURE IN CELSIUS
VSB - VISIBILITY IN STATUTE MILES
WCI - WIND CHILL INDEX
HX  - HEAT INDEX




USA.gov is the U.S. government's official web portal to all federal, state and local government web resources and services.